TimeMST,TemperatureF,Dew PointF,Humidity,Sea Level PressureIn,VisibilityMPH,Wind Direction,Wind SpeedMPH,Gust SpeedMPH,PrecipitationIn,Events,Conditions,WindDirDegrees,DateUTC
12:53 AM,36.0,24.1,62,30.04,10.0,Calm,Calm,-,N/A,,Clear,0,2012-11-07 07:53:00
1:53 AM,35.1,25.0,67,30.01,10.0,Calm,Calm,-,N/A,,Clear,0,2012-11-07 08:53:00
2:53 AM,32.0,23.0,69,29.99,10.0,Calm,Calm,-,N/A,,Clear,0,2012-11-07 09:53:00
3:53 AM,35.1,24.1,64,29.98,10.0,Calm,Calm,-,N/A,,Clear,0,2012-11-07 10:53:00
4:53 AM,32.0,21.0,64,29.99,10.0,Calm,Calm,-,N/A,,Clear,0,2012-11-07 11:53:00
5:53 AM,30.0,23.0,75,29.99,10.0,Calm,Calm,-,N/A,,Clear,0,2012-11-07 12:53:00
6:53 AM,28.9,21.9,75,30.01,10.0,Calm,Calm,-,N/A,,Clear,0,2012-11-07 13:53:00
7:53 AM,30.0,21.0,69,30.02,10.0,SW,3.5,-,N/A,,Clear,230,2012-11-07 14:53:00
8:53 AM,37.0,23.0,57,29.99,10.0,Calm,Calm,-,N/A,,Clear,0,2012-11-07 15:53:00
9:53 AM,44.1,24.1,45,29.95,10.0,Calm,Calm,-,N/A,,Clear,0,2012-11-07 16:53:00
10:53 AM,48.9,27.0,43,29.91,10.0,Variable,4.6,-,N/A,,Clear,0,2012-11-07 17:53:00
11:53 AM,57.9,27.0,31,29.85,10.0,ESE,3.5,-,N/A,,Clear,120,2012-11-07 18:53:00
12:53 PM,63.0,25.0,24,29.80,10.0,South,8.1,-,N/A,,Clear,170,2012-11-07 19:53:00
1:53 PM,68.0,24.1,19,29.75,10.0,South,8.1,-,N/A,,Clear,170,2012-11-07 20:53:00
2:53 PM,71.1,21.0,15,29.74,10.0,SSE,9.2,-,N/A,,Clear,160,2012-11-07 21:53:00
3:53 PM,70.0,21.0,16,29.72,10.0,South,4.6,-,N/A,,Clear,170,2012-11-07 22:53:00
4:53 PM,62.1,24.1,23,29.75,10.0,WSW,5.8,-,N/A,,Clear,250,2012-11-07 23:53:00
5:53 PM,57.0,21.9,26,29.78,10.0,NW,10.4,-,N/A,,Clear,310,2012-11-08 00:53:00
6:53 PM,52.0,21.9,31,29.81,10.0,North,4.6,-,N/A,,Clear,350,2012-11-08 01:53:00
7:53 PM,52.0,21.9,31,29.83,10.0,Calm,Calm,-,N/A,,Clear,0,2012-11-08 02:53:00
8:53 PM,52.0,23.0,32,29.82,10.0,SE,4.6,-,N/A,,Clear,130,2012-11-08 03:53:00
9:53 PM,54.0,24.1,31,29.80,10.0,Calm,Calm,-,N/A,,Clear,0,2012-11-08 04:53:00
10:53 PM,50.0,24.1,36,29.81,10.0,South,8.1,-,N/A,,Clear,190,2012-11-08 05:53:00
11:53 PM,45.0,26.1,48,29.82,10.0,North,6.9,-,N/A,,Clear,350,2012-11-08 06:53:00